period_start,C,m1,H,J0,J1,J2,J3,J4,J5,JA,JB,JC,JD,JJ,JK,JN,#
2017-11-13 00:04:44,0.02,0.07,0.00,19.63,23.14,26.49,14.32,46.45,1032.59,2046.90,3539.01,3097.00,3546.67,600.29,612.72,2.42,0000 0000 0000 0000 000000
2017-11-13 00:09:46,0.03,0.07,0.00,19.60,23.14,26.41,14.33,46.50,1032.63,2046.92,3538.23,3096.66,3546.02,600.38,612.79,2.47,0000 0000 0000 0000 000000
2017-11-13 00:14:47,0.02,0.08,0.00,19.55,23.14,26.33,14.29,46.44,1032.66,2046.95,3537.80,3096.03,3545.54,599.64,612.26,2.52,0000 0000 0000 0000 000000
2017-11-13 00:19:48,0.01,0.08,0.00,19.53,23.12,26.24,14.25,46.43,1032.69,2046.97,3537.05,3096.00,3545.02,599.66,612.21,2.57,0000 0000 0000 0000 000000
2017-11-13 00:24:49,0.02,0.08,0.00,19.56,23.12,26.26,14.39,46.57,1032.66,2046.98,3536.60,3095.88,3544.82,600.22,612.75,2.62,0000 0000 0000 0000 000000
2017-11-13 00:29:51,0.03,0.08,0.00,19.55,23.11,26.22,14.36,46.47,1032.58,2046.98,3536.00,3095.18,3544.07,600.15,612.67,2.67,0000 0000 0000 0000 000000
2017-11-13 00:34:52,0.02,0.08,0.00,19.58,23.09,26.20,14.29,46.51,1032.57,2046.98,3535.32,3094.99,3543.71,599.86,612.41,2.72,0000 0000 0000 0000 000000
2017-11-13 00:39:53,0.02,0.08,0.00,19.57,23.09,26.19,14.28,46.47,1032.64,2046.98,3534.74,3094.68,3543.03,599.75,612.52,2.77,0000 0000 0000 0000 000000
2017-11-13 00:44:55,0.03,0.08,0.00,19.60,23.09,26.19,14.33,46.40,1032.70,2046.99,3534.02,3094.04,3542.51,599.94,612.45,2.82,0000 0000 0000 0000 000000
2017-11-13 00:49:56,0.02,0.09,0.00,19.60,23.08,26.20,14.37,46.46,1032.70,2046.99,3533.28,3093.96,3542.01,600.34,612.77,2.87,0000 0000 0000 0000 000000
2017-11-13 00:54:58,0.04,0.09,0.00,19.67,23.07,26.19,14.29,46.41,1032.72,2046.99,3532.70,3093.38,3541.44,600.03,612.28,2.92,0000 0000 0000 0000 000000
2017-11-13 00:59:59,0.01,0.09,0.00,19.69,23.07,26.15,14.26,46.33,1032.71,2046.99,3532.02,3093.00,3540.98,599.96,612.32,2.97,0000 0000 0000 0000 000000
2017-11-13 01:05:00,0.03,0.09,0.00,19.70,23.07,26.10,14.24,46.48,1032.69,2046.99,3531.27,3092.79,3540.29,599.67,611.98,3.02,0000 0000 0000 0000 000000
2017-11-13 01:10:02,0.02,0.09,0.00,19.72,23.07,26.15,14.31,46.46,1032.64,2046.98,3530.72,3092.06,3539.92,600.22,612.52,3.07,0000 0000 0000 0000 000000
2017-11-13 01:15:03,0.02,0.09,0.00,19.76,23.08,26.11,14.31,46.48,1032.53,2046.99,3529.99,3091.98,3539.11,599.99,612.09,3.12,0000 0000 0000 0000 000000
2017-11-13 01:20:04,0.04,0.10,0.00,19.77,23.09,26.09,14.33,46.44,1032.53,2046.98,3529.17,3091.25,3538.69,600.55,612.68,3.17,0000 0000 0000 0000 000000
2017-11-13 01:25:05,0.02,0.10,0.00,19.77,23.09,26.11,14.30,46.51,1032.50,2046.97,3528.46,3090.99,3538.00,599.87,611.83,3.22,0000 0000 0000 0000 000000
2017-11-13 01:30:07,0.03,0.10,0.00,19.80,23.10,26.12,14.31,46.54,1032.44,2046.98,3527.85,3090.43,3537.32,600.09,612.09,3.27,0000 0000 0000 0000 000000
2017-11-13 01:35:08,0.01,0.10,0.00,19.82,23.11,26.12,14.28,46.53,1032.41,2046.98,3527.04,3090.01,3536.87,599.86,611.68,3.32,0000 0000 0000 0000 000000
2017-11-13 01:40:09,0.03,0.10,0.00,19.84,23.12,26.16,14.30,46.50,1032.50,2046.97,3526.20,3089.67,3536.07,600.02,611.98,3.37,0000 0000 0000 0000 000000
2017-11-13 01:45:10,0.03,0.10,0.00,19.83,23.12,26.15,14.27,46.62,1032.53,2046.97,3525.58,3089.02,3535.62,600.11,611.97,3.43,0000 0000 0000 0000 000000
2017-11-13 01:50:11,0.02,0.10,0.00,19.86,23.14,26.13,14.26,46.55,1032.47,2046.96,3524.95,3088.84,3534.99,599.92,611.69,3.48,0000 0000 0000 0000 000000
2017-11-13 01:55:13,0.04,0.11,0.00,19.87,23.14,26.17,14.19,46.56,1032.46,2046.94,3524.12,3088.10,3534.26,599.73,611.55,3.53,0000 0000 0000 0000 000000
2017-11-13 02:00:14,0.01,0.11,0.00,19.86,23.16,26.18,14.27,46.48,1032.58,2046.92,3523.53,3087.97,3533.86,599.87,611.85,3.58,0000 0000 0000 0000 000000
2017-11-13 02:05:15,0.03,0.11,0.00,19.86,23.17,26.16,14.20,46.52,1032.41,2046.84,3522.80,3087.25,3533.08,599.22,611.10,3.63,0000 0000 0000 0000 000000
2017-11-13 02:10:16,0.02,0.11,0.00,19.84,23.19,26.18,14.25,46.48,1032.28,2046.82,3522.04,3087.01,3532.66,600.07,611.79,3.68,0000 0000 0000 0000 000000
2017-11-13 02:15:17,-0.02,0.11,0.00,19.79,23.19,26.22,14.26,46.49,1032.27,2046.27,3521.23,3086.44,3531.99,600.00,611.81,3.73,0000 0000 0000 0000 000000
2017-11-13 02:20:18,0.03,0.11,0.00,19.82,23.21,26.30,14.27,46.52,1032.28,2046.26,3520.67,3086.02,3531.28,599.86,611.54,3.78,0000 0000 0000 0000 000000
2017-11-13 02:25:19,0.01,0.11,0.00,19.88,23.22,26.29,14.29,46.50,1032.25,2046.14,3519.99,3085.76,3530.78,599.85,611.50,3.83,0000 0000 0000 0000 000000
2017-11-13 02:30:21,0.03,0.11,0.00,19.88,23.22,26.33,14.27,46.44,1032.34,2046.05,3519.15,3085.05,3530.04,599.92,611.66,3.88,0000 0000 0000 0000 000000
2017-11-13 02:35:22,0.03,0.11,0.00,19.86,23.23,26.29,14.25,46.55,1032.44,2046.05,3518.47,3084.87,3529.43,599.87,611.71,3.93,0000 0000 0000 0000 000000
2017-11-13 02:40:24,0.02,0.12,0.00,19.87,23.24,26.29,14.27,46.55,1032.38,2046.05,3517.77,3084.11,3528.94,600.04,611.79,3.98,0000 0000 0000 0000 000000
2017-11-13 02:45:25,0.02,0.12,0.00,19.87,23.24,26.29,14.28,46.52,1032.31,2046.04,3517.02,3083.99,3528.17,599.83,611.53,4.03,0000 0000 0000 0000 000000
2017-11-13 02:50:26,0.04,0.12,0.00,19.80,23.26,26.28,14.25,46.52,1032.34,2046.03,3516.22,3083.32,3527.77,599.99,611.91,4.08,0000 0000 0000 0000 000000
2017-11-13 02:55:27,0.02,0.12,0.00,19.83,23.27,26.31,14.29,46.46,1032.34,2046.01,3515.43,3083.00,3527.03,600.02,611.92,4.13,0000 0000 0000 0000 000000
2017-11-13 03:00:28,0.03,0.12,0.00,19.85,23.27,26.38,14.31,46.48,1032.40,2046.01,3514.90,3082.65,3526.48,600.43,612.22,4.18,0000 0000 0000 0000 000000
2017-11-13 03:05:29,0.02,0.12,0.00,19.89,23.29,26.37,14.27,46.53,1032.45,2046.00,3514.09,3082.02,3525.98,599.58,611.56,4.23,0000 0000 0000 0000 000000
2017-11-13 03:10:30,0.03,0.12,0.00,19.89,23.29,26.34,14.30,46.48,1032.53,2046.00,3513.48,3081.88,3525.24,600.12,611.87,4.28,0000 0000 0000 0000 000000
2017-11-13 03:15:31,0.03,0.13,0.00,19.87,23.30,26.32,14.30,46.52,1032.44,2046.00,3512.76,3081.09,3524.76,600.24,611.99,4.33,0000 0000 0000 0000 000000
2017-11-13 03:20:33,0.02,0.13,0.00,19.89,23.30,26.37,14.29,46.55,1032.41,2046.00,3512.02,3080.96,3524.04,599.81,611.52,4.38,0000 0000 0000 0000 000000
2017-11-13 03:25:34,0.05,0.13,0.00,19.81,23.32,26.35,14.30,46.54,1032.38,2046.00,3511.21,3080.29,3523.46,600.16,612.12,4.43,0000 0000 0000 0000 000000
2017-11-13 03:30:35,0.01,0.13,0.00,19.83,23.32,26.40,14.30,46.54,1032.51,2046.00,3510.70,3080.01,3523.00,599.82,611.60,4.48,0000 0000 0000 0000 000000
2017-11-13 03:35:36,0.03,0.13,0.00,19.85,23.32,26.42,14.35,46.59,1032.62,2046.00,3510.00,3079.79,3522.28,600.25,612.06,4.53,0000 0000 0000 0000 000000
2017-11-13 03:40:38,0.03,0.13,0.00,19.89,23.33,26.43,14.33,46.58,1032.70,2046.00,3509.21,3079.08,3521.93,600.00,611.85,4.58,0000 0000 0000 0000 000000
2017-11-13 03:45:39,0.02,0.14,0.00,19.90,23.34,26.36,14.34,46.50,1032.70,2045.99,3508.70,3078.98,3521.17,599.99,611.88,4.63,0000 0000 0000 0000 000000
2017-11-13 03:50:41,0.03,0.14,0.00,19.90,23.34,26.38,14.34,46.67,1032.70,2045.97,3507.99,3078.34,3520.76,599.87,611.74,4.68,0000 0000 0000 0000 000000
2017-11-13 03:55:42,0.02,0.14,0.00,19.91,23.34,26.39,14.25,46.63,1032.69,2045.97,3507.20,3078.00,3520.05,599.68,611.52,4.73,0000 0000 0000 0000 000000
2017-11-13 04:00:44,0.02,0.14,0.00,19.96,23.35,26.39,14.28,46.62,1032.68,2045.97,3506.68,3077.79,3519.78,599.76,611.48,4.78,0000 0000 0000 0000 000000
2017-11-13 04:05:45,0.03,0.14,0.00,19.95,23.36,26.36,14.28,46.67,1032.68,2045.94,3506.01,3077.09,3519.08,600.01,611.73,4.83,0000 0000 0000 0000 000000
2017-11-13 04:10:47,0.02,0.14,0.00,19.93,23.37,26.35,14.26,46.58,1032.59,2045.97,3505.31,3076.99,3518.88,599.85,611.67,4.88,0000 0000 0000 0000 000000
2017-11-13 04:15:48,0.03,0.14,0.00,19.93,23.37,26.39,14.31,46.66,1032.54,2045.88,3504.66,3076.45,3518.08,599.91,611.57,4.93,0000 0000 0000 0000 000000
2017-11-13 04:20:49,0.02,0.14,0.00,19.96,23.37,26.39,14.27,46.55,1032.62,2045.77,3504.01,3076.01,3517.70,600.16,611.80,4.98,0000 0000 0000 0000 000000
2017-11-13 04:25:50,0.02,0.15,0.00,19.95,23.37,26.40,14.28,46.58,1032.68,2045.91,3503.49,3075.99,3517.04,600.13,611.89,5.03,0000 0000 0000 0000 000000
2017-11-13 04:30:52,0.02,0.15,0.00,19.94,23.38,26.40,14.32,46.58,1032.68,2045.93,3502.95,3075.53,3516.82,599.95,611.73,5.08,0000 0000 0000 0000 000000
2017-11-13 04:35:53,0.02,0.15,0.00,19.96,23.39,26.42,14.26,46.38,1032.70,2045.87,3502.12,3075.02,3516.06,599.72,611.48,5.13,0000 0000 0000 0000 000000
2017-11-13 04:40:54,-0.00,0.15,0.00,19.98,23.39,26.39,14.28,46.47,1032.73,2045.55,3501.50,3074.79,3515.59,599.32,611.08,5.18,0000 0000 0000 0000 000000
2017-11-13 04:45:55,0.01,0.15,0.00,19.95,23.40,26.42,14.27,46.48,1032.73,2045.35,3500.98,3074.09,3515.01,599.47,611.24,5.23,0000 0000 0000 0000 000000
2017-11-13 04:50:57,0.01,0.15,0.00,19.93,23.42,26.40,14.29,46.47,1032.72,2045.25,3500.22,3074.00,3514.59,599.78,611.64,5.28,0000 0000 0000 0000 000000
2017-11-13 04:55:58,0.03,0.15,0.00,19.95,23.42,26.43,14.36,46.46,1032.73,2045.26,3499.67,3073.72,3514.01,600.11,611.83,5.33,0000 0000 0000 0000 000000
2017-11-13 05:00:59,0.03,0.15,0.00,19.97,23.42,26.43,14.31,46.51,1032.73,2045.23,3499.00,3073.06,3513.51,600.02,611.67,5.38,0000 0000 0000 0000 000000
2017-11-13 05:06:01,0.01,0.15,0.00,19.95,23.42,26.43,14.37,46.45,1032.72,2045.16,3498.29,3072.99,3513.00,600.33,612.09,5.43,0000 0000 0000 0000 000000
2017-11-13 05:11:02,0.03,0.15,0.00,19.86,23.44,26.40,14.35,46.62,1032.73,2045.07,3497.74,3072.53,3512.44,599.54,611.71,5.48,0000 0000 0000 0000 000000
2017-11-13 05:16:03,0.02,0.16,0.00,19.88,23.44,26.45,14.30,46.58,1032.72,2045.07,3497.03,3072.02,3512.00,599.98,612.07,5.53,0000 0000 0000 0000 000000
2017-11-13 05:21:05,0.02,0.16,0.00,19.96,23.45,26.43,14.23,46.47,1032.71,2045.08,3496.53,3071.98,3511.57,599.74,611.66,5.58,0000 0000 0000 0000 000000
2017-11-13 05:26:06,0.03,0.16,0.00,19.94,23.45,26.44,14.27,46.42,1032.73,2045.04,3495.90,3071.34,3510.99,599.83,611.63,5.63,0000 0000 0000 0000 000000
2017-11-13 05:31:08,0.02,0.16,0.00,19.91,23.46,26.43,14.24,46.54,1032.73,2045.02,3495.07,3071.00,3510.22,599.64,611.52,5.68,0000 0000 0000 0000 000000
2017-11-13 05:36:09,0.01,0.16,0.00,19.92,23.47,26.48,14.36,46.54,1032.73,2045.01,3494.49,3070.95,3509.97,600.46,612.28,5.73,0000 0000 0000 0000 000000
2017-11-13 05:41:10,0.03,0.16,0.00,19.77,23.47,26.52,14.38,46.56,1032.73,2045.01,3493.90,3070.26,3509.22,600.18,612.34,5.79,0000 0000 0000 0000 000000
2017-11-13 05:46:11,0.01,0.16,0.00,19.54,23.47,26.69,14.26,46.64,1032.73,2045.02,3493.09,3070.00,3508.97,599.68,612.31,5.84,0000 0000 0000 0000 000000
2017-11-13 05:51:13,0.02,0.16,0.00,19.41,23.45,26.81,14.37,46.73,1032.73,2045.01,3492.78,3069.98,3508.31,600.14,612.91,5.89,0000 0000 0000 0000 000000
2017-11-13 05:56:15,0.02,0.17,0.00,19.30,23.44,26.80,14.42,46.76,1032.73,2045.01,3492.05,3069.72,3508.00,600.60,613.65,5.94,0000 0000 0000 0000 000000
2017-11-13 06:01:16,0.02,0.17,0.00,19.18,23.42,26.78,14.34,46.72,1032.73,2045.04,3491.71,3069.12,3507.92,599.78,613.18,5.99,0000 0000 0000 0000 000000
2017-11-13 06:06:17,0.02,0.17,0.00,19.13,23.39,26.72,14.34,46.67,1032.73,2045.08,3491.03,3069.00,3507.16,599.63,613.07,6.04,0000 0000 0000 0000 000000
2017-11-13 06:11:19,0.01,0.17,0.00,19.13,23.37,26.67,14.36,46.65,1032.73,2045.21,3490.81,3069.00,3507.00,600.21,613.60,6.09,0000 0000 0000 0000 000000
2017-11-13 06:16:20,0.06,0.17,0.00,19.14,23.34,26.58,14.39,46.68,1032.72,2045.69,3490.10,3068.98,3507.00,600.38,613.89,6.14,0000 0000 0000 0000 000000
2017-11-13 06:21:21,0.02,0.17,0.00,19.11,23.31,26.56,14.36,46.73,1032.73,2045.95,3489.99,3068.97,3506.79,600.09,613.69,6.19,0000 0000 0000 0000 000000
2017-11-13 06:26:22,0.03,0.17,0.00,19.17,23.28,26.52,14.43,46.69,1032.73,2045.97,3489.57,3068.68,3506.12,600.42,614.00,6.24,0000 0000 0000 0000 000000
2017-11-13 06:31:23,0.02,0.18,0.00,19.20,23.25,26.47,14.36,46.60,1032.73,2045.99,3489.01,3068.15,3506.00,600.28,613.64,6.29,0000 0000 0000 0000 000000
2017-11-13 06:36:25,0.01,0.18,0.00,19.21,23.23,26.47,14.42,46.72,1032.73,2045.99,3488.57,3068.00,3505.93,600.18,613.53,6.34,0000 0000 0000 0000 000000
2017-11-13 06:41:26,0.01,0.18,0.00,19.25,23.20,26.43,14.42,46.87,1032.73,2045.99,3488.01,3067.99,3505.19,600.17,613.42,6.39,0000 0000 0000 0000 000000
2017-11-13 06:46:27,0.01,0.18,0.00,19.22,23.18,26.39,14.35,46.70,1032.73,2045.99,3487.68,3067.97,3505.00,600.20,613.52,6.44,0000 0000 0000 0000 000000
2017-11-13 06:51:28,0.01,0.18,0.00,19.27,23.16,26.38,14.35,46.65,1032.73,2046.01,3487.03,3067.63,3504.93,599.97,613.18,6.49,0000 0000 0000 0000 000000
2017-11-13 06:56:29,0.02,0.18,0.00,19.28,23.14,26.35,14.36,46.56,1032.73,2046.02,3486.85,3067.12,3504.26,600.18,613.12,6.54,0000 0000 0000 0000 000000
2017-11-13 07:01:30,0.01,0.18,0.00,19.24,23.12,26.33,14.38,46.66,1032.73,2046.05,3486.06,3067.01,3504.01,600.40,613.62,6.59,0000 0000 0000 0000 000000
2017-11-13 07:06:31,0.00,0.18,0.00,19.29,23.11,26.31,14.40,46.63,1032.73,2046.12,3485.97,3066.99,3503.97,600.18,613.28,6.64,0000 0000 0000 0000 000000
2017-11-13 07:11:32,0.04,0.18,0.00,19.24,23.09,26.30,14.35,46.77,1032.73,2046.37,3485.29,3066.98,3503.49,599.94,613.11,6.69,0000 0000 0000 0000 000000
2017-11-13 07:16:33,0.05,0.19,0.00,19.30,23.07,26.29,14.34,46.71,1032.74,2046.74,3484.99,3066.71,3503.01,599.89,613.08,6.74,0000 0000 0000 0000 000000
2017-11-13 07:21:35,0.03,0.19,0.00,19.35,23.07,26.27,14.35,46.68,1032.74,2046.95,3484.43,3066.19,3502.96,599.88,612.87,6.79,0000 0000 0000 0000 000000
2017-11-13 07:26:36,0.02,0.19,0.00,19.31,23.04,26.22,14.39,46.65,1032.75,2046.96,3483.98,3066.00,3502.30,600.03,613.17,6.84,0000 0000 0000 0000 000000
2017-11-13 07:31:38,0.02,0.19,0.00,19.34,23.04,26.22,14.32,46.66,1032.75,2046.96,3483.19,3065.96,3501.99,599.79,612.76,6.89,0000 0000 0000 0000 000000
2017-11-13 07:36:38,0.02,0.19,0.00,19.39,23.03,26.22,14.33,46.65,1032.74,2046.96,3482.88,3065.47,3501.63,599.64,612.65,6.94,0000 0000 0000 0000 000000
2017-11-13 07:41:40,0.02,0.19,0.00,19.39,23.02,26.16,14.35,46.55,1032.74,2046.97,3482.09,3065.02,3501.03,600.19,613.23,6.99,0000 0000 0000 0000 000000
2017-11-13 07:46:41,0.01,0.19,0.00,19.44,23.02,26.11,14.28,46.58,1032.74,2046.98,3481.79,3065.00,3500.85,599.85,612.70,7.04,0000 0000 0000 0000 000000
2017-11-13 07:51:42,0.03,0.20,0.00,19.44,23.02,26.12,14.28,46.63,1032.76,2046.99,3481.06,3064.78,3500.09,599.66,612.63,7.09,0000 0000 0000 0000 000000
2017-11-13 07:56:43,0.02,0.20,0.00,19.42,23.01,26.11,14.28,46.69,1032.86,2046.99,3480.60,3064.11,3499.99,599.99,612.84,7.14,0000 0000 0000 0000 000000
2017-11-13 08:01:44,0.01,0.20,0.00,19.43,23.01,26.07,14.37,46.58,1032.94,2046.99,3480.02,3064.00,3499.60,600.18,613.17,7.19,0000 0000 0000 0000 000000
2017-11-13 08:06:46,0.02,0.20,0.00,19.43,23.00,26.05,14.32,46.53,1033.15,2046.99,3479.35,3063.98,3499.01,599.85,613.04,7.24,0000 0000 0000 0000 000000
2017-11-13 08:11:47,0.02,0.20,0.00,19.46,23.00,26.05,14.31,46.59,1033.21,2046.99,3478.97,3063.56,3498.70,599.98,612.98,7.29,0000 0000 0000 0000 000000
2017-11-13 08:16:48,0.03,0.20,0.00,19.40,23.00,26.01,14.38,46.73,1033.22,2046.99,3478.18,3063.05,3498.04,599.95,613.24,7.34,0000 0000 0000 0000 000000
2017-11-13 08:21:49,0.01,0.20,0.00,19.46,23.00,26.04,14.32,46.57,1033.22,2046.99,3477.68,3062.95,3497.71,600.07,613.18,7.39,0000 0000 0000 0000 000000
2017-11-13 08:26:50,0.03,0.20,0.00,19.48,23.00,26.07,14.32,46.65,1033.22,2046.99,3477.01,3062.21,3497.02,600.13,613.18,7.44,0000 0000 0000 0000 000000
2017-11-13 08:31:52,0.02,0.21,0.00,19.50,23.00,26.04,14.32,46.69,1033.22,2046.99,3476.32,3062.01,3496.68,599.77,612.77,7.49,0000 0000 0000 0000 000000
2017-11-13 08:36:53,0.01,0.21,0.00,19.46,23.01,26.02,14.30,46.54,1033.23,2046.98,3475.82,3061.95,3496.04,600.09,613.25,7.54,0000 0000 0000 0000 000000
2017-11-13 08:41:54,0.03,0.21,0.00,19.47,23.01,26.02,14.27,46.48,1033.23,2046.99,3475.06,3061.27,3495.86,599.80,612.93,7.59,0000 0000 0000 0000 000000
2017-11-13 08:46:56,0.02,0.21,0.00,19.54,23.02,26.05,14.26,46.64,1033.23,2046.99,3474.56,3061.00,3495.09,599.62,612.56,7.64,0000 0000 0000 0000 000000
2017-11-13 08:51:57,0.01,0.21,0.00,19.58,23.02,26.00,14.31,46.63,1033.22,2046.99,3473.97,3060.91,3494.79,599.71,612.54,7.69,0000 0000 0000 0000 000000
2017-11-13 08:56:58,0.04,0.21,0.00,19.56,23.02,26.02,14.30,46.52,1033.23,2046.99,3473.19,3060.20,3494.05,599.96,612.86,7.74,0000 0000 0000 0000 000000
2017-11-13 09:01:59,0.01,0.21,0.00,19.55,23.02,26.01,14.26,46.62,1033.24,2046.99,3472.77,3060.00,3493.90,599.97,612.81,7.79,0000 0000 0000 0000 000000
2017-11-13 09:07:01,0.03,0.21,0.00,19.61,23.02,26.00,14.33,46.61,1033.27,2046.99,3472.02,3059.78,3493.11,600.02,612.83,7.84,0000 0000 0000 0000 000000
2017-11-13 09:12:02,0.04,0.22,0.00,19.64,23.04,26.03,14.34,46.67,1033.34,2046.98,3471.26,3059.05,3492.63,600.08,612.88,7.89,0000 0000 0000 0000 000000
2017-11-13 09:17:03,0.01,0.22,0.00,19.62,23.04,26.00,14.40,46.76,1033.47,2046.98,3470.68,3058.95,3492.02,600.00,613.01,7.94,0000 0000 0000 0000 000000
2017-11-13 09:22:04,0.04,0.22,0.00,19.63,23.05,26.02,14.29,46.57,1033.61,2046.97,3470.01,3058.26,3491.53,599.90,612.82,7.99,0000 0000 0000 0000 000000
2017-11-13 09:27:05,0.01,0.22,0.00,19.58,23.07,26.01,14.34,46.60,1033.59,2046.95,3469.23,3058.00,3490.99,600.27,613.30,8.04,0000 0000 0000 0000 000000
2017-11-13 09:32:06,0.03,0.22,0.00,19.61,23.07,26.07,14.32,46.48,1033.63,2046.94,3468.66,3057.67,3490.23,599.94,612.97,8.09,0000 0000 0000 0000 000000
2017-11-13 09:37:08,0.01,0.22,0.00,19.64,23.07,26.07,14.32,46.49,1033.61,2046.87,3467.95,3057.03,3489.90,600.27,613.02,8.14,0000 0000 0000 0000 000000
2017-11-13 09:42:09,0.02,0.22,0.00,19.68,23.08,26.12,14.36,46.51,1033.65,2046.80,3467.12,3056.96,3489.10,600.08,612.98,8.19,0000 0000 0000 0000 000000
2017-11-13 09:47:10,0.03,0.23,0.00,19.69,23.09,26.07,14.32,46.46,1033.66,2046.82,3466.54,3056.26,3488.73,600.18,613.05,8.24,0000 0000 0000 0000 000000
2017-11-13 09:52:11,0.01,0.23,0.00,19.70,23.09,26.07,14.29,46.51,1033.63,2046.64,3465.84,3055.99,3488.03,599.97,612.70,8.30,0000 0000 0000 0000 000000
2017-11-13 09:57:12,0.01,0.23,0.00,19.72,23.10,26.12,14.26,46.45,1033.67,2046.46,3465.04,3055.68,3487.61,599.87,612.73,8.35,0000 0000 0000 0000 000000
2017-11-13 10:02:14,0.02,0.23,0.00,19.70,23.10,26.11,14.25,46.58,1033.67,2046.26,3464.35,3055.03,3486.99,600.17,612.85,8.40,0000 0000 0000 0000 000000
2017-11-13 10:07:15,0.02,0.23,0.00,19.68,23.12,26.07,14.24,46.56,1033.64,2046.18,3463.79,3054.79,3486.20,599.64,612.51,8.45,0000 0000 0000 0000 000000
2017-11-13 10:12:16,0.02,0.23,0.00,19.70,23.12,26.11,14.32,46.65,1033.65,2046.13,3463.03,3054.06,3485.82,600.05,613.04,8.50,0000 0000 0000 0000 000000
2017-11-13 10:17:17,0.02,0.23,0.00,19.76,23.12,26.13,14.39,46.72,1033.67,2046.11,3462.22,3053.99,3485.09,600.22,613.00,8.55,0000 0000 0000 0000 000000
2017-11-13 10:22:19,0.04,0.23,0.00,19.78,23.13,26.12,14.34,46.40,1033.67,2046.09,3461.66,3053.49,3484.75,599.88,612.65,8.60,0000 0000 0000 0000 000000
2017-11-13 10:27:20,0.01,0.24,0.00,19.79,23.14,26.11,14.29,46.42,1033.69,2046.07,3460.98,3053.01,3484.04,599.65,612.39,8.65,0000 0000 0000 0000 000000
2017-11-13 10:32:21,0.03,0.24,0.00,19.78,23.14,26.14,14.35,46.55,1033.70,2046.05,3460.21,3052.81,3483.58,600.28,612.95,8.70,0000 0000 0000 0000 000000
2017-11-13 10:37:22,0.03,0.24,0.00,19.83,23.14,26.14,14.30,46.50,1033.71,2046.04,3459.50,3052.08,3483.00,599.89,612.49,8.75,0000 0000 0000 0000 000000
2017-11-13 10:42:23,0.02,0.24,0.00,19.84,23.15,26.11,14.29,46.53,1033.71,2046.03,3458.96,3051.98,3482.31,599.88,612.65,8.80,0000 0000 0000 0000 000000
2017-11-13 10:47:24,0.04,0.24,0.00,19.83,23.17,26.14,14.30,46.39,1033.71,2046.02,3458.13,3051.29,3481.87,600.16,612.82,8.85,0000 0000 0000 0000 000000
2017-11-13 10:52:26,0.02,0.24,0.00,19.86,23.17,26.17,14.39,46.54,1033.71,2046.00,3457.43,3050.99,3481.08,600.05,612.63,8.90,0000 0000 0000 0000 000000
2017-11-13 10:57:27,0.03,0.24,0.00,19.86,23.17,26.15,14.30,46.43,1033.71,2046.00,3456.87,3050.50,3480.56,599.93,612.54,8.95,0000 0000 0000 0000 000000
2017-11-13 11:02:28,0.02,0.25,0.00,19.85,23.17,26.18,14.33,46.47,1033.71,2046.00,3456.07,3050.02,3480.01,599.96,612.60,9.00,0000 0000 0000 0000 000000
2017-11-13 11:07:30,0.03,0.25,0.00,19.86,23.19,26.19,14.32,46.47,1033.71,2046.01,3455.41,3049.77,3479.38,600.06,612.57,9.05,0000 0000 0000 0000 000000
2017-11-13 11:12:31,0.02,0.25,0.00,19.87,23.19,26.20,14.35,46.42,1033.72,2046.00,3454.73,3049.05,3478.93,600.19,612.83,9.10,0000 0000 0000 0000 000000
2017-11-13 11:17:32,0.02,0.25,0.00,19.86,23.19,26.18,14.28,46.38,1033.73,2046.00,3453.98,3048.95,3478.11,600.18,612.75,9.15,0000 0000 0000 0000 000000
2017-11-13 11:22:34,0.05,0.25,0.00,19.84,23.19,26.22,14.28,46.45,1033.73,2046.00,3453.14,3048.17,3477.53,599.78,612.41,9.20,0000 0000 0000 0000 000000
2017-11-13 11:27:35,0.01,0.25,0.00,19.87,23.20,26.19,14.22,46.42,1033.74,2046.00,3452.33,3047.96,3476.96,599.70,612.23,9.25,0000 0000 0000 0000 000000
2017-11-13 11:32:37,0.04,0.26,0.00,19.91,23.21,26.23,14.30,46.41,1033.74,2046.00,3451.62,3047.30,3476.20,600.07,612.50,9.30,0000 0000 0000 0000 000000
2017-11-13 11:37:38,0.01,0.26,0.00,19.90,23.22,26.21,14.37,46.43,1033.78,2046.00,3450.91,3046.99,3475.88,600.16,612.67,9.35,0000 0000 0000 0000 000000
2017-11-13 11:42:39,0.04,0.26,0.00,19.88,23.22,26.23,14.25,46.46,1033.77,2046.00,3450.09,3046.46,3475.07,599.70,612.35,9.40,0000 0000 0000 0000 000000
2017-11-13 11:47:41,0.03,0.26,0.00,19.91,23.22,26.24,14.30,46.58,1033.83,2046.00,3449.31,3046.01,3474.50,599.91,612.51,9.45,0000 0000 0000 0000 000000
2017-11-13 11:52:42,0.03,0.26,0.00,19.89,23.23,26.24,14.27,46.51,1033.96,2046.00,3448.51,3045.47,3473.96,599.99,612.62,9.50,0000 0000 0000 0000 000000
2017-11-13 11:57:43,0.02,0.26,0.00,19.89,23.24,26.28,14.27,46.58,1034.00,2046.00,3447.83,3045.03,3473.19,599.65,612.34,9.55,0000 0000 0000 0000 000000
2017-11-13 12:02:45,0.04,0.26,0.00,19.91,23.24,26.29,14.35,46.44,1034.09,2046.00,3446.99,3044.63,3472.66,600.17,612.82,9.60,0000 0000 0000 0000 000000
2017-11-13 12:07:46,0.02,0.27,0.00,19.94,23.24,26.29,14.31,46.42,1034.10,2045.99,3446.12,3044.02,3472.00,599.81,612.35,9.65,0000 0000 0000 0000 000000
2017-11-13 12:12:48,0.04,0.27,0.00,19.93,23.25,26.25,14.30,46.45,1034.03,2045.99,3445.37,3043.69,3471.30,599.99,612.65,9.70,0000 0000 0000 0000 000000
2017-11-13 12:17:49,0.02,0.27,0.00,19.91,23.26,26.25,14.24,46.49,1033.93,2045.99,3444.62,3043.03,3470.81,600.15,612.56,9.75,0000 0000 0000 0000 000000
2017-11-13 12:22:50,0.02,0.27,0.00,19.92,23.27,26.28,14.26,46.48,1033.93,2045.99,3443.96,3042.84,3470.03,600.04,612.60,9.80,0000 0000 0000 0000 000000
2017-11-13 12:27:52,0.04,0.27,0.00,19.95,23.27,26.26,14.31,46.52,1033.94,2045.97,3443.09,3042.08,3469.38,599.88,612.33,9.85,0000 0000 0000 0000 000000
2017-11-13 12:32:53,0.01,0.28,0.00,19.92,23.27,26.29,14.29,46.56,1033.94,2045.94,3442.24,3041.88,3468.94,599.99,612.45,9.90,0000 0000 0000 0000 000000
2017-11-13 12:37:54,0.05,0.28,0.00,19.90,23.27,26.34,14.32,46.50,1034.03,2045.96,3441.55,3041.09,3468.11,600.01,612.66,9.95,0000 0000 0000 0000 000000
2017-11-13 12:42:55,0.01,0.28,0.00,19.93,23.29,26.33,14.38,46.56,1034.00,2045.96,3440.90,3040.96,3467.63,600.12,612.71,10.00,0000 0000 0000 0000 000000
2017-11-13 12:47:57,0.04,0.28,0.00,19.97,23.29,26.31,14.30,46.58,1034.12,2045.95,3440.10,3040.37,3467.02,600.07,612.60,10.05,0000 0000 0000 0000 000000
2017-11-13 12:52:58,0.03,0.28,0.00,19.95,23.29,26.30,14.24,46.58,1034.09,2045.97,3439.59,3040.00,3466.52,599.53,612.06,10.10,0000 0000 0000 0000 000000
2017-11-13 12:57:59,0.02,0.28,0.00,19.94,23.29,26.31,14.33,46.58,1034.01,2045.97,3438.81,3039.81,3465.99,600.01,612.46,10.15,0000 0000 0000 0000 000000
2017-11-13 13:03:00,0.03,0.29,0.00,19.95,23.30,26.33,14.30,46.54,1034.02,2045.90,3438.03,3039.05,3465.23,599.78,612.29,10.20,0000 0000 0000 0000 000000